Location: Namasale
(1.5000°N, 32.6167°E)
Time: 22:30:43
(UTC+00:00)

Vanguard 3 - Pass Details

Date: 26 April 2021
Orbit: 507 x 3262 km, 33.4° (Epoch: 16 May)

Event Time Altitude Azimuth Distance (km) Brightness Sun altitude
Rises 16:41:09 0° 232° (SW) 7,228 12.6 -12.7°
Reaches altitude 10° 16:46:08 10° 231° (SW) 6,181 12.1 -13.9°
Maximum altitude 17:05:36 82° 144° (SE) 2,621 9.5 -18.6°
Enters shadow 17:17:45 11° 58° (ENE) 4,118 10.3 -21.5°
